Wind_Speed
13 11 9 9 8 7 6 5 3 1 1 1 1 2 4 5 6 6 7 7 6 6 6 5 5 5 6 5 5 5 6 6 6 6 5 5 5 6 5 5 5 6 6 6
15 13 12 12 10 8 7 7 5 3 4 3 1 1 2 4 5 5 5 5 5 4 4 4 4 4 4 4 5 5 5 5 5 5 5 5 5 5 5 5 5 6 6 7
16 14 14 13 11 10 8 7 6 7 7 5 3 2 2 3 4 4 3 4 4 3 2 2 2 3 3 4 4 5 5 5 5 4 4 4 5 5 6 6 6 6 6 6
18 17 17 15 13 12 10 9 8 8 8 8 7 5 4 4 4 4 4 4 4 2 1 2 2 2 3 3 4 4 4 4 4 4 5 5 6 6 6 7 7 6 6 6
19 19 18 17 15 14 12 11 10 9 10 10 9 8 7 6 5 5 5 5 4 4 3 4 3 3 3 4 5 5 5 5 5 5 6 6 7 7 7 7 8 7 7 7
20 20 19 19 17 16 15 14 13 12 11 11 10 10 8 8 7 6 6 6 6 5 5 5 5 4 5 5 6 6 6 6 6 6 7 8 8 8 8 8 9 9 9 9
21 20 20 20 19 18 17 16 16 15 14 12 12 12 10 10 9 8 8 7 7 6 6 6 6 6 6 7 8 7 7 8 8 8 8 8 9 8 8 9 10 10 10 10
21 20 20 20 20 19 19 18 18 18 17 15 15 15 13 12 11 10 10 9 8 7 6 6 7 7 7 7 8 8 8 9 9 9 9 9 9 9 9 10 11 11 12 12
21 20 20 20 20 21 21 20 20 20 20 19 18 17 15 14 13 13 13 11 10 9 8 8 9 9 9 8 9 10 10 10 11 11 11 11 11 11 11 12 12 12 13 13
20 20 20 20 21 22 22 22 22 22 21 20 19 17 16 15 15 15 14 13 12 11 11 11 11 11 10 11 11 11 11 11 11 11 12 12 12 13 13 13 14 14 14 14
20 20 20 21 23 22 23 23 22 23 22 21 19 17 15 16 16 15 15 15 15 14 12 12 13 12 12 12 12 11 12 12 12 13 13 14 14 14 14 14 15 15 16 16
20 20 22 22 22 23 23 23 22 23 22 21 20 17 16 16 16 17 17 17 17 16 14 14 14 14 14 14 13 14 14 14 14 14 14 14 15 15 15 16 16 17 17 18
21 21 21 22 23 22 23 22 22 23 22 22 20 18 17 17 17 17 17 17 17 17 17 16 16 16 16 16 16 16 16 16 16 16 16 16 17 17 18 18 18 18 19 19
22 22 21 21 22 21 22 22 22 22 23 23 21 20 19 19 19 19 19 18 19 18 18 18 18 17 18 18 18 18 18 19 18 18 18 19 19 19 19 20 20 20 20 22
23 23 22 22 22 22 22 22 23 23 23 24 23 22 21 21 20 20 20 20 20 20 19 19 20 20 19 19 19 19 19 19 20 20 20 21 22 22 22 22 23 23 23 23
25 24 24 24 24 23 23 23 23 23 23 24 24 22 21 21 20 20 19 20 20 21 22 21 20 21 20 21 21 21 22 21 22 22 22 24 24 24 24 24 24 24 24 24
27 26 25 25 25 25 25 23 23 24 24 24 24 23 22 22 21 21 21 21 21 21 22 23 24 23 23 23 24 24 24 24 24 24 25 25 25 25 25 26 26 26 26 27
28 27 27 27 27 28 26 24 24 25 25 24 24 23 22 22 23 23 23 23 23 23 23 24 24 24 24 25 25 25 25 25 26 26 26 27 26 26 26 27 27 27 27 27
28 28 29 29 29 29 27 27 26 26 26 25 24 23 24 24 24 24 25 25 25 24 24 25 26 27 26 27 26 27 27 28 28 28 28 28 27 27 27 27 27 27 27 27
29 29 29 30 31 31 29 28 28 28 27 25 24 24 24 23 24 24 25 26 26 26 26 26 27 27 28 28 28 29 28 28 27 27 27 28 28 28 28 28 28 28 28 28
30 30 30 30 31 31 29 29 28 28 26 25 25 26 26 26 26 25 26 27 27 27 27 27 27 28 28 29 29 29 28 27 27 28 29 29 29 29 29 29 30 29 29 29
31 31 31 31 30 30 28 27 28 28 27 27 27 27 27 26 26 25 26 27 27 28 29 29 29 29 29 30 30 30 28 28 29 29 29 30 30 29 30 31 31 31 30 29
31 31 30 30 30 29 28 28 28 28 28 28 28 28 28 28 28 28 28 29 29 30 30 30 31 31 31 31 31 31 29 29 29 30 29 30 31 31 32 32 32 31 31 30
29 29 30 30 30 30 30 29 29 30 30 29 29 29 29 30 30 30 30 30 31 31 32 32 32 32 31 31 32 31 31 31 31 31 31 31 32 31 32 32 32 33 31 29
29 30 30 30 29 29 30 31 30 30 30 31 31 31 31 31 31 31 31 32 32 32 32 32 31 32 32 31 31 31 31 31 31 31 31 31 32 32 32 33 33 33 31 30
30 31 31 30 29 29 29 30 31 31 32 32 32 32 32 32 32 32 32 32 31 31 31 31 31 31 31 32 32 32 31 31 32 31 31 31 31 32 32 31 31 30 30 30
Wind_Direction
209 204 203 209 208 206 201 192 187 221 319 339 20 42 36 31 30 33 33 35 48 54 58 59 56 50 50 51 52 46 40 36 34 31 30 28 21 20 19 14 8 4 1 357
215 212 215 219 218 218 216 203 209 236 277 292 272 336 15 11 10 19 26 25 39 45 53 60 55 44 41 39 44 41 33 29 23 20 19 15 9 7 7 4 356 352 349 347
220 216 221 223 224 223 218 220 229 242 262 272 278 281 314 332 348 358 1 11 19 29 37 36 35 27 28 21 25 23 19 14 8 2 355 350 347 347 352 351 345 342 340 338
220 219 222 224 227 233 235 236 239 246 253 268 275 276 283 293 308 328 330 329 331 325 318 338 349 2 2 352 352 357 360 359 356 352 345 342 341 338 335 337 334 332 328 323
222 223 225 226 228 233 235 240 244 252 260 270 280 281 277 273 285 300 301 305 311 309 303 310 314 318 328 328 330 333 334 333 330 332 331 331 333 328 324 326 328 321 316 316
222 224 227 227 229 233 239 244 250 256 265 270 279 280 277 274 278 284 284 291 296 291 289 296 300 296 303 310 315 316 319 316 315 319 323 325 323 318 317 321 321 315 310 310
222 225 227 227 229 236 241 246 253 259 265 270 274 276 274 273 275 278 280 284 289 284 279 282 291 292 294 300 306 309 310 308 307 309 312 316 316 316 314 314 315 313 308 304
223 225 228 229 231 236 242 247 254 261 267 270 272 272 270 269 272 274 279 282 280 280 280 277 280 278 282 292 300 305 307 309 307 305 303 305 308 309 306 305 307 307 306 302
227 229 231 233 234 237 241 245 252 259 265 269 271 271 268 266 269 272 277 281 279 278 285 283 278 278 286 293 298 298 301 304 303 302 298 295 298 299 297 298 301 303 304 301
228 230 230 232 236 240 242 246 250 255 261 269 271 269 268 267 269 271 273 274 277 282 287 285 282 283 286 293 296 298 298 301 301 300 296 293 292 293 295 297 298 300 300 299
228 229 230 233 237 241 243 246 249 253 259 267 269 270 271 272 270 272 274 276 276 278 283 282 280 285 287 290 294 296 297 298 299 297 295 293 290 290 292 294 296 297 296 296
230 231 232 235 238 241 245 248 251 255 260 263 266 268 273 274 273 273 273 276 275 275 279 282 281 282 282 283 286 288 290 292 293 294 295 292 289 288 290 292 294 295 295 294
232 235 234 234 237 241 244 246 250 256 260 261 263 268 270 273 271 272 272 272 274 275 276 279 281 281 280 279 280 283 285 286 287 289 291 292 290 289 289 289 291 292 292 293
236 237 238 240 242 245 248 250 254 257 260 262 263 268 269 271 272 272 273 274 274 275 277 278 279 277 281 284 286 284 283 283 284 285 287 289 290 288 288 288 290 291 291 294
238 240 240 242 243 246 249 252 256 259 263 266 267 268 270 272 273 274 275 275 274 276 278 279 278 280 284 286 288 288 284 283 283 285 287 287 288 287 286 287 289 292 293 294
241 243 242 243 245 248 251 253 257 261 265 267 268 268 269 271 273 275 276 277 277 278 277 278 282 282 284 286 287 284 282 282 284 285 285 285 286 286 285 286 287 289 289 290
242 243 244 247 248 250 252 255 260 263 265 267 267 267 269 269 270 273 273 275 279 278 277 279 284 284 281 285 288 286 286 284 288 286 284 284 284 284 284 284 285 285 287 289
244 244 245 248 249 250 254 258 261 264 265 267 267 265 265 267 269 270 273 275 276 276 278 280 281 282 283 283 286 287 286 286 286 285 285 283 281 281 282 284 284 286 288 288
242 245 247 248 251 254 255 257 259 262 265 267 268 267 269 268 270 271 274 275 276 275 278 280 281 282 283 286 288 288 288 286 285 285 282 279 278 280 281 283 284 286 288 290
245 246 247 250 253 255 257 257 259 263 265 267 268 269 269 268 269 270 273 274 275 278 280 280 281 283 284 286 287 288 289 288 285 283 279 276 277 278 280 282 283 285 288 289
245 247 248 251 255 257 258 258 260 262 266 267 268 269 268 270 272 272 272 274 276 279 280 282 282 282 283 284 286 288 287 287 285 282 278 276 277 278 281 283 283 285 287 289
246 249 251 252 255 256 256 258 261 264 265 267 269 270 270 271 271 273 275 276 277 279 279 281 282 283 284 284 284 286 285 285 283 281 276 276 276 278 279 282 283 285 286 287
247 248 250 253 255 257 257 258 261 264 266 268 270 271 271 272 273 273 274 277 278 281 281 280 282 283 283 283 284 285 284 285 283 280 277 277 277 279 282 283 282 285 286 286
246 247 250 252 254 256 258 260 262 264 266 268 270 270 272 274 275 274 276 279 281 282 282 279 278 279 280 281 282 284 284 284 282 281 281 281 279 278 280 281 282 283 285 285
246 249 251 253 256 257 257 259 262 265 267 268 269 270 274 276 276 275 275 278 280 281 282 280 279 279 278 278 279 281 282 282 281 281 283 283 281 280 280 281 282 282 283 282
246 249 251 254 256 259 260 261 263 266 267 269 271 273 275 277 277 276 276 277 279 280 279 279 279 279 278 279 279 282 283 283 281 281 281 282 282 281 281 281 283 283 282 280
Height
5892 5895 5896 5898 5899 5900 5900 5901 5902 5902 5902 5903 5903 5903 5903 5902 5901 5901 5900 5899 5898 5898 5897 5896 5896 5895 5895 5894 5893 5893 5892 5892 5891 5890 5890 5889 5889 5888 5887 5886 5886 5885 5884 5883
5892 5894 5895 5896 5897 5898 5899 5900 5901 5902 5902 5902 5903 5903 5903 5902 5901 5901 5900 5900 5899 5898 5897 5897 5896 5895 5895 5894 5894 5893 5893 5892 5891 5891 5890 5889 5889 5888 5887 5886 5885 5884 5883 5882
5889 5893 5893 5894 5896 5898 5898 5900 5900 5901 5901 5901 5902 5903 5903 5902 5901 5901 5900 5899 5898 5898 5897 5897 5896 5895 5895 5895 5894 5893 5892 5891 5891 5890 5890 5889 5888 5887 5886 5885 5884 5883 5883 5882
5887 5889 5891 5893 5895 5896 5897 5898 5899 5899 5899 5900 5901 5902 5902 5902 5901 5900 5900 5899 5898 5897 5897 5897 5896 5895 5895 5895 5894 5893 5892 5891 5891 5890 5889 5888 5887 5886 5885 5884 5883 5883 5882 5881
5884 5886 5888 5890 5893 5894 5896 5896 5897 5897 5897 5899 5899 5900 5902 5901 5900 5899 5899 5898 5898 5897 5896 5896 5895 5895 5894 5894 5894 5893 5892 5891 5890 5889 5888 5887 5886 5885 5884 5883 5882 5881 5880 5879
5881 5883 5885 5888 5890 5892 5893 5894 5895 5895 5896 5897 5898 5898 5899 5899 5899 5899 5898 5897 5897 5896 5896 5895 5894 5893 5893 5893 5892 5892 5891 5890 5889 5888 5887 5886 5885 5884 5883 5882 5881 5880 5879 5878
5877 5880 5882 5885 5887 5889 5890 5892 5893 5893 5894 5895 5895 5895 5897 5897 5897 5897 5897 5896 5895 5895 5894 5893 5893 5892 5891 5891 5890 5890 5889 5888 5887 5886 5885 5884 5883 5882 5881 5880 5879 5878 5877 5875
5874 5877 5879 5881 5884 5885 5887 5889 5890 5891 5891 5892 5892 5892 5895 5895 5894 5894 5895 5894 5893 5893 5892 5891 5891 5890 5890 5889 5888 5888 5887 5886 5885 5884 5883 5882 5881 5880 5879 5878 5877 5875 5874 5873
5871 5874 5876 5878 5880 5882 5883 5885 5887 5887 5888 5888 5889 5890 5891 5891 5892 5892 5892 5891 5891 5890 5889 5889 5888 5888 5887 5887 5886 5885 5885 5883 5882 5881 5880 5879 5878 5877 5876 5875 5874 5873 5871 5870
5867 5870 5873 5874 5876 5877 5880 5881 5883 5883 5884 5884 5885 5886 5888 5888 5888 5889 5888 5888 5887 5887 5887 5886 5885 5884 5884 5884 5883 5882 5881 5880 5879 5878 5877 5876 5876 5874 5873 5872 5871 5870 5868 5867
5863 5866 5868 5870 5872 5873 5876 5877 5878 5879 5880 5881 5881 5885 5884 5884 5884 5884 5884 5884 5884 5884 5883 5883 5882 5881 5881 5880 5879 5878 5878 5877 5876 5875 5874 5873 5872 5871 5870 5868 5867 5866 5864 5863
5859 5861 5863 5866 5868 5869 5871 5872 5874 5876 5876 5877 5877 5882 5880 5880 5880 5880 5880 5880 5880 5879 5879 5879 5878 5877 5877 5876 5875 5874 5874 5873 5872 5871 5870 5869 5868 5867 5866 5864 5863 5861 5860 5859
5855 5857 5859 5861 5865 5865 5866 5867 5869 5870 5871 5872 5873 5877 5875 5876 5875 5876 5876 5875 5875 5875 5875 5874 5874 5873 5872 5871 5870 5870 5869 5868 5868 5867 5866 5865 5864 5863 5861 5860 5858 5857 5855 5854
5850 5852 5855 5858 5859 5860 5861 5863 5864 5865 5866 5867 5868 5870 5871 5871 5871 5871 5871 5871 5871 5871 5870 5870 5869 5868 5868 5867 5866 5865 5864 5864 5863 5862 5861 5860 5859 5857 5856 5854 5853 5851 5850 5849
5845 5847 5850 5852 5854 5856 5857 5859 5860 5861 5862 5863 5864 5864 5866 5866 5866 5866 5866 5866 5866 5866 5865 5865 5864 5863 5862 5861 5860 5859 5859 5858 5857 5856 5855 5854 5853 5852 5850 5849 5847 5846 5844 5843
5839 5842 5845 5847 5849 5850 5852 5853 5854 5856 5856 5857 5858 5859 5860 5860 5860 5860 5861 5860 5860 5860 5859 5859 5858 5857 5856 5855 5854 5853 5852 5852 5851 5850 5849 5848 5847 5846 5845 5843 5841 5840 5838 5837
5834 5837 5839 5841 5843 5844 5846 5848 5849 5850 5851 5852 5852 5854 5854 5854 5855 5855 5855 5855 5855 5854 5853 5853 5852 5851 5850 5849 5848 5847 5846 5845 5844 5843 5843 5842 5840 5839 5838 5836 5835 5833 5832 5830
5828 5831 5833 5835 5838 5839 5843 5843 5844 5844 5845 5846 5846 5847 5848 5848 5849 5849 5849 5849 5848 5848 5848 5847 5846 5845 5844 5843 5842 5841 5839 5838 5837 5837 5836 5835 5833 5832 5831 5830 5828 5826 5825 5823
5822 5825 5827 5829 5830 5832 5835 5836 5837 5838 5839 5840 5840 5841 5841 5842 5842 5843 5843 5842 5842 5841 5841 5840 5839 5838 5837 5836 5835 5833 5832 5831 5830 5828 5827 5826 5825 5824 5823 5822 5820 5819 5817 5816
5815 5818 5821 5822 5823 5825 5829 5830 5830 5833 5833 5834 5834 5835 5835 5835 5836 5837 5836 5836 5835 5834 5834 5833 5832 5831 5830 5829 5827 5826 5824 5823 5821 5820 5818 5817 5817 5816 5815 5814 5812 5811 5809 5808
5809 5811 5813 5815 5816 5818 5820 5822 5824 5826 5828 5827 5827 5828 5828 5828 5829 5829 5829 5829 5828 5827 5827 5825 5824 5823 5822 5821 5820 5818 5816 5815 5813 5811 5810 5809 5808 5808 5806 5805 5804 5802 5801 5799
5802 5804 5806 5808 5809 5813 5813 5815 5817 5818 5819 5819 5820 5820 5820 5821 5821 5821 5821 5821 5820 5819 5819 5817 5816 5815 5814 5813 5811 5810 5808 5806 5804 5802 5801 5800 5799 5798 5797 5796 5795 5793 5792 5791
5794 5798 5799 5802 5805 5805 5806 5808 5809 5810 5811 5812 5812 5813 5813 5813 5813 5813 5813 5812 5812 5811 5810 5809 5808 5807 5806 5804 5803 5801 5799 5797 5795 5793 5792 5791 5791 5790 5788 5787 5785 5784 5782 5782
5787 5789 5792 5794 5796 5797 5799 5800 5801 5802 5803 5803 5804 5804 5804 5805 5804 5804 5803 5803 5802 5801 5801 5800 5799 5798 5797 5795 5793 5792 5790 5788 5786 5785 5783 5782 5781 5780 5779 5777 5776 5774 5773 5773
5780 5782 5784 5786 5788 5789 5791 5792 5793 5794 5795 5796 5796 5796 5796 5796 5795 5795 5794 5794 5793 5792 5791 5790 5789 5788 5787 5786 5784 5782 5781 5779 5777 5775 5774 5773 5771 5770 5769 5768 5767 5765 5764 5763
5773 5775 5777 5779 5781 5782 5784 5785 5786 5786 5787 5787 5787 5787 5787 5787 5786 5786 5785 5784 5783 5783 5782 5781 5780 5778 5777 5776 5774 5773 5771 5769 5767 5766 5765 5763 5762 5761 5759 5758 5756 5754 5753 5753